This is the latest recevied weather packets stored in our database for station/object WD4IXD. If no packets are shown the sender has not sent any weather packets the latest 10 day(s).
| Time | Temp. | Humidity | Pressure | Rain* | Wind** | Luminosity | Snow |
|---|---|---|---|---|---|---|---|
| 1777840204 | 24.44° C | 12% | 1015 hPa | 0 mm | - | 557 W/m² | - |
| 1777839915 | 24.44° C | 12% | 1015 hPa | 0 mm | - | 364 W/m² | - |
| 1777839615 | 24.44° C | 12% | 1015 hPa | 0 mm | - | 318 W/m² | - |
| 1777839304 | 24.44° C | 12% | 1015.1 hPa | 0 mm | - | 316 W/m² | - |
| 1777839004 | 25° C | 11% | 1015.1 hPa | 0 mm | - | 320 W/m² | - |
| 1777838715 | 25° C | 12% | 1015.1 hPa | 0 mm | - | 408 W/m² | - |
| 1777838404 | 24.44° C | 12% | 1015.2 hPa | 0 mm | - | 1005 W/m² | - |
| 1777838115 | 24.44° C | 12% | 1015.2 hPa | 0 mm | - | 362 W/m² | - |
| 1777837804 | 24.44° C | 12% | 1015.1 hPa | 0 mm | - | 373 W/m² | - |
| 1777837515 | 23.89° C | 12% | 1015.1 hPa | 0 mm | - | 355 W/m² | - |
| 1777837204 | 23.89° C | 12% | 1015.1 hPa | 0 mm | - | 1171 W/m² | - |
| 1777836915 | 23.33° C | 12% | 1015.3 hPa | 0 mm | - | 846 W/m² | - |
| 1777836604 | 23.33° C | 12% | 1015.4 hPa | 0 mm | - | 461 W/m² | - |
| 1777836315 | 24.44° C | 11% | 1015.5 hPa | 0 mm | - | 469 W/m² | - |
| 1777836004 | 25° C | 12% | 1015.6 hPa | 0 mm | - | 397 W/m² | - |
| 1777835715 | 25° C | 12% | 1015.6 hPa | 0 mm | - | 348 W/m² | - |
| 1777835415 | 24.44° C | 12% | 1015.6 hPa | 0 mm | - | 1218 W/m² | - |
| 1777835104 | 24.44° C | 11% | 1015.7 hPa | 0 mm | - | 833 W/m² | - |
| 1777834803 | 24.44° C | 11% | 1015.9 hPa | 0 mm | - | 951 W/m² | - |
| 1777834515 | 24.44° C | 12% | 1016 hPa | 0 mm | - | 891 W/m² | - |
| 1777834204 | 24.44° C | 12% | 1016.1 hPa | 0 mm | - | 868 W/m² | - |
| 1777833914 | 24.44° C | 13% | 1016.2 hPa | 0 mm | - | 891 W/m² | - |
| 1777833604 | 24.44° C | 13% | 1016.4 hPa | 0 mm | - | 881 W/m² | - |
| 1777833315 | 24.44° C | 13% | 1016.5 hPa | 0 mm | - | 898 W/m² | - |
| 1777833003 | 24.44° C | 13% | 1016.6 hPa | 0 mm | - | 619 W/m² | - |
* Rain latest hour (hover to see other rain measurements)
** Current wind speed in m/s (hover to see current wind gust speed)